Simultaneous Nadir Overpasses (SNOs) Predictions

Prediction of SNOs between LANDSAT-8 and METOP-A Satellite Orbit:

Table of predicted SNOs for the next 14.0 days since TLE Epoch: 7/16/2016
Index Date (LANDSAT-8) Time (LANDSAT-8) Lat,Lon (LANDSAT-8) SZA (LANDSAT-8 ) Date (METOP-A) Time (METOP-A) Lat,Lon (METOP-A) SZA (METOP-A ) Distance(km) Time Diff (sec)
1 07/18/2016 04:50:39 -81.17, -31.87 117.70 07/18/2016 04:49:56 -81.17, -31.91 117.72 0.83 43
2 07/18/2016 05:40:04 81.20, 136.26 62.38 07/18/2016 05:40:34 81.20, 136.31 62.40 1.06 30
3 07/21/2016 00:24:55 -81.17, 34.63 117.18 07/21/2016 00:24:17 -81.18, 34.70 117.18 1.23 38
4 07/21/2016 01:14:20 81.20,-157.28 62.90 07/21/2016 01:14:55 81.20,-157.12 62.93 2.78 35
5 07/23/2016 19:59:11 -81.18, 101.08 116.61 07/23/2016 19:58:39 -81.17, 100.91 116.64 3.00 32
6 07/23/2016 20:48:36 81.20, -90.85 63.47 07/23/2016 20:49:17 81.20, -90.95 63.47 1.78 41
7 07/26/2016 15:33:26 -81.17, 167.50 116.00 07/26/2016 15:32:59 -81.18, 167.48 116.01 0.38 27
8 07/26/2016 16:22:51 81.20, -24.46 64.07 07/26/2016 16:23:37 81.20, -24.41 64.09 0.80 46
9 07/29/2016 11:07:42 -81.17,-126.12 115.36 07/29/2016 11:07:20 -81.18,-125.97 115.34 2.74 22




NCC Satellite Simultaneous Nadir Overpasses (SNOs) Prediction Service
